Wind_Speed
31 32 32 32 31 30 30 30 30 29 29 29 28 27 27 26 26 25 24 24 24 24 24 24 23 23 23 22 22 22 22 22 21 21 21 22 21 21 21 21 21 21 21
34 33 34 34 33 32 32 32 32 30 30 30 30 30 29 28 28 27 27 26 26 26 26 26 26 25 24 24 24 24 24 24 24 24 23 23 23 23 23 23 23 23 22
36 36 35 36 35 35 34 34 34 32 32 32 31 31 31 31 30 29 29 28 28 28 28 28 28 27 26 26 26 26 25 25 25 25 25 24 24 24 24 24 24 24 24
36 36 36 36 36 37 36 36 35 33 33 33 33 33 32 32 32 32 31 31 31 30 30 29 29 29 29 28 28 28 28 27 27 26 26 26 26 26 26 26 26 26 25
36 36 36 37 37 37 36 37 36 36 36 35 35 34 34 34 34 34 34 33 33 32 32 31 31 31 30 30 30 30 29 29 29 28 28 28 28 28 28 27 28 28 27
38 38 38 38 38 38 37 37 37 37 37 37 37 36 36 36 36 36 36 35 35 34 34 33 33 33 32 32 32 32 31 31 30 30 30 30 30 30 30 29 30 30 29
39 40 40 39 39 39 39 39 40 40 39 39 39 38 38 38 37 37 37 37 36 36 36 36 35 35 35 34 33 33 34 33 33 33 32 32 32 32 31 31 31 31 32
40 40 40 41 41 41 42 42 42 43 42 42 41 40 40 40 39 38 37 37 37 37 37 37 37 37 37 37 36 35 35 35 35 35 34 34 34 34 34 33 33 33 34
41 41 41 41 42 43 43 43 42 44 44 44 43 42 42 42 41 40 39 39 38 37 37 38 38 38 39 38 38 37 37 36 36 37 36 36 36 36 36 35 35 35 35
44 43 42 42 42 43 44 44 44 45 46 46 46 45 44 43 42 41 41 40 40 39 39 39 39 40 39 39 39 39 39 38 38 38 38 38 38 38 38 37 37 37 36
45 45 44 44 44 44 44 46 46 45 47 48 47 47 46 45 44 43 42 41 41 41 41 40 40 40 40 40 40 40 40 40 40 39 39 39 39 39 38 38 38 38 38
45 45 45 45 45 45 44 45 46 46 46 47 47 47 47 46 45 45 44 43 43 42 42 42 42 41 42 42 41 41 41 41 41 41 41 40 40 40 40 39 40 40 40
46 47 47 47 47 46 45 45 46 46 45 47 48 47 47 47 47 46 46 45 44 43 44 44 44 44 43 43 43 42 42 42 43 43 43 42 42 42 42 42 42 42 42
48 48 49 49 49 49 49 48 48 48 46 46 48 48 48 48 48 48 48 47 46 45 45 45 45 45 44 44 44 44 43 44 44 44 44 44 44 44 44 43 44 44 43
49 50 50 50 49 50 50 51 50 50 49 48 48 48 49 50 50 49 49 48 48 47 46 46 46 45 45 45 45 45 45 45 45 45 45 45 45 45 45 45 45 46 46
49 50 51 51 50 50 51 52 52 52 52 51 49 49 50 50 51 50 50 50 49 48 47 47 47 47 46 46 47 47 46 46 47 47 47 47 47 46 46 46 47 47 48
50 51 51 52 53 52 52 53 53 53 54 53 52 51 51 52 51 52 51 51 51 50 49 48 48 48 48 48 48 48 47 47 47 48 48 48 48 48 48 48 48 48 49
51 51 52 53 53 54 54 54 55 55 55 55 54 52 52 53 53 53 53 53 52 51 51 49 50 49 50 50 50 50 49 49 49 49 49 49 49 49 49 50 50 50 50
51 52 52 53 54 55 55 55 55 55 56 56 55 54 53 54 55 55 55 55 54 53 53 52 52 51 51 51 51 51 51 51 51 51 51 51 51 51 51 51 51 51 52
52 53 53 54 55 56 57 57 57 56 56 56 56 55 55 55 55 56 56 56 56 56 55 54 54 54 53 53 53 53 53 52 52 52 52 52 52 52 52 52 52 52 52
52 52 53 55 56 56 56 57 57 57 56 56 57 57 56 56 57 57 58 57 57 56 56 55 56 56 56 55 55 55 54 54 53 53 53 52 52 52 52 52 53 54 54
54 54 55 56 56 56 57 57 57 57 57 56 56 56 56 56 57 57 57 57 57 57 57 57 57 57 57 57 57 56 56 56 55 54 54 53 53 53 53 54 54 54 54
56 56 56 56 56 56 57 58 58 57 57 57 56 56 56 56 56 55 56 56 57 57 57 57 57 57 58 57 57 57 57 57 56 55 55 54 54 54 54 55 55 55 55
56 56 55 56 55 55 56 56 57 57 57 57 57 58 57 57 56 56 56 55 55 56 56 56 57 57 57 56 56 56 56 56 56 56 56 55 55 55 55 55 55 55 56
55 54 54 55 55 54 54 55 55 55 56 57 57 57 57 57 56 56 55 56 56 56 56 56 56 56 56 56 56 56 56 56 56 55 56 56 56 56 56 56 57 57 57
53 53 53 54 54 54 54 53 54 54 54 55 56 56 56 56 57 56 55 55 55 55 55 56 55 55 55 56 56 56 57 57 56 56 56 56 56 57 57 57 57 57 58
Wind_Direction
250 249 248 248 249 249 250 250 249 249 250 252 254 257 259 259 260 261 262 263 264 266 267 270 270 270 269 268 268 266 266 266 265 265 267 268 270 271 272 274 277 279 278
251 250 250 249 249 249 250 251 251 251 252 253 254 255 257 260 260 261 262 263 264 266 268 269 269 270 269 269 268 266 266 266 266 266 267 268 269 271 273 274 274 276 276
250 250 250 250 250 250 251 252 252 252 253 253 254 255 256 258 260 262 262 264 266 267 268 268 269 269 269 269 268 267 267 267 267 268 267 268 269 271 273 274 274 275 275
249 249 250 250 251 251 251 252 252 251 252 253 254 255 256 257 259 260 262 264 265 265 266 266 267 268 268 268 268 268 268 267 267 268 268 268 269 271 272 273 273 273 274
250 249 249 250 251 251 251 251 251 251 252 253 254 255 255 256 258 259 262 263 263 264 265 265 265 266 267 267 268 268 268 268 266 267 268 268 269 270 272 272 273 272 273
250 250 250 251 251 251 251 251 252 252 253 253 254 254 255 256 258 259 260 262 262 263 264 265 265 265 266 267 267 268 267 267 267 268 268 268 269 270 271 271 271 271 272
251 251 251 251 251 251 251 251 252 253 254 254 255 255 256 257 258 259 260 262 263 263 263 264 265 265 266 267 267 267 266 266 266 266 267 268 269 270 270 270 270 271 271
251 251 251 251 251 252 253 253 255 255 254 254 255 256 257 258 258 259 260 262 262 263 264 265 265 265 266 267 267 266 266 266 266 266 267 269 269 269 270 270 270 271 271
251 253 252 252 252 252 252 254 254 255 255 255 256 257 259 259 259 260 261 261 262 264 264 264 265 266 266 266 267 266 265 266 266 266 266 268 269 269 270 270 270 270 271
251 252 252 252 253 253 253 254 256 256 255 255 256 257 259 259 260 260 260 261 262 263 265 265 265 266 267 267 267 267 266 266 267 267 266 266 268 269 269 269 270 271 271
252 252 253 253 254 254 254 254 256 258 257 256 256 257 258 258 259 259 260 261 263 264 265 266 267 268 267 267 267 268 267 268 268 267 266 267 268 267 267 269 269 270 271
252 252 253 254 254 254 255 255 256 258 257 257 257 257 257 257 258 258 258 260 262 264 265 266 267 268 268 267 267 267 267 268 268 267 267 267 268 268 268 268 269 270 271
252 253 252 254 255 255 255 255 256 257 258 258 257 257 257 257 257 258 259 260 261 263 264 266 267 267 268 267 266 266 266 267 267 267 268 268 268 268 268 269 269 270 270
253 253 253 254 255 255 255 254 255 257 259 259 258 257 256 256 257 258 258 260 261 262 262 264 265 266 267 267 267 266 266 266 267 267 268 268 269 269 270 270 270 270 270
256 254 254 255 255 255 256 256 256 257 259 259 257 256 256 256 256 257 258 259 261 263 263 263 264 265 266 267 267 266 266 267 267 268 268 268 269 270 271 271 271 271 271
258 257 255 255 255 256 257 257 257 257 258 258 257 257 257 256 256 257 258 259 261 263 264 264 265 265 266 266 266 266 267 267 267 268 268 268 268 269 270 271 272 272 272
258 258 258 256 256 255 256 257 257 257 257 258 259 260 259 257 256 257 258 259 261 262 263 264 264 265 265 266 267 266 267 267 268 269 269 269 269 269 270 270 270 270 271
258 258 259 259 258 257 257 258 258 258 258 258 259 260 259 258 257 257 257 259 260 262 263 263 264 264 265 266 267 266 266 268 268 269 270 270 269 269 270 270 269 269 270
258 259 260 260 259 259 258 259 259 259 259 259 259 259 260 259 257 256 258 259 260 262 263 263 264 264 265 265 266 266 267 268 268 269 270 270 270 270 270 270 269 269 269
259 259 260 260 260 261 260 259 259 259 259 258 258 259 259 258 257 257 258 260 261 262 263 264 264 264 265 266 267 267 267 268 268 269 269 270 269 270 270 270 269 269 270
259 259 260 260 261 261 260 260 260 259 259 258 258 258 258 258 257 257 258 259 260 261 262 263 264 264 265 266 268 268 267 267 268 268 269 269 269 269 270 270 271 271 272
260 260 260 260 261 261 261 260 260 260 259 258 258 258 258 259 259 259 258 259 260 261 262 262 263 264 266 267 267 268 267 267 267 267 268 268 269 269 270 270 271 272 273
261 261 261 260 261 262 261 260 259 259 259 259 259 258 258 259 259 259 258 259 260 260 262 263 263 265 266 266 267 267 267 266 267 267 267 268 269 270 270 271 272 272 274
261 262 262 261 262 262 262 261 259 258 258 258 259 259 259 259 259 258 258 260 260 260 261 262 263 265 265 265 266 266 266 266 267 268 268 268 269 269 270 271 272 273 274
262 262 263 263 262 262 261 261 260 259 259 258 258 259 260 259 259 258 259 259 260 260 261 261 263 264 263 264 265 266 266 267 267 267 268 268 269 269 270 271 273 274 275
262 261 262 262 262 262 260 260 260 260 260 259 259 259 259 259 259 258 259 260 261 261 261 262 262 263 264 265 266 267 268 268 268 268 268 269 269 269 270 272 274 275 276
Height
5792 5794 5796 5798 5800 5801 5803 5805 5807 5809 5811 5813 5815 5816 5818 5819 5820 5821 5822 5823 5824 5824 5825 5825 5826 5826 5827 5827 5828 5828 5829 5829 5830 5830 5831 5832 5832 5832 5832 5832 5832 5832 5832
5784 5786 5789 5791 5793 5795 5797 5799 5801 5803 5804 5806 5808 5810 5811 5813 5814 5815 5816 5817 5818 5819 5819 5820 5820 5820 5821 5821 5822 5822 5823 5823 5824 5825 5825 5826 5826 5826 5827 5827 5827 5827 5827
5776 5779 5781 5783 5785 5787 5789 5791 5793 5795 5797 5799 5801 5803 5804 5806 5807 5809 5810 5811 5811 5812 5813 5813 5814 5814 5815 5815 5815 5816 5817 5817 5818 5818 5819 5819 5820 5820 5820 5821 5821 5821 5821
5768 5770 5772 5775 5777 5779 5781 5784 5786 5788 5790 5792 5793 5795 5797 5798 5800 5801 5803 5804 5805 5805 5806 5807 5807 5808 5808 5808 5809 5809 5810 5811 5811 5812 5812 5813 5813 5814 5814 5814 5815 5815 5815
5759 5761 5763 5766 5768 5770 5773 5775 5778 5780 5781 5783 5785 5787 5789 5791 5792 5794 5795 5796 5797 5798 5799 5799 5800 5801 5801 5802 5802 5803 5803 5804 5804 5805 5805 5806 5806 5806 5807 5807 5808 5808 5808
5749 5752 5754 5757 5759 5761 5764 5766 5769 5771 5773 5775 5777 5779 5781 5783 5784 5786 5787 5788 5789 5790 5791 5791 5792 5793 5794 5794 5795 5795 5796 5796 5797 5797 5798 5798 5799 5799 5799 5800 5800 5800 5800
5739 5742 5745 5747 5750 5752 5754 5757 5759 5762 5764 5766 5768 5770 5772 5774 5775 5777 5778 5780 5781 5782 5783 5783 5784 5785 5786 5786 5787 5787 5788 5788 5789 5790 5790 5791 5791 5791 5791 5792 5792 5792 5792
5729 5732 5734 5737 5740 5742 5745 5747 5749 5752 5754 5757 5759 5761 5763 5765 5766 5768 5769 5771 5772 5773 5774 5775 5775 5776 5777 5777 5778 5778 5779 5780 5781 5781 5782 5782 5783 5783 5783 5783 5783 5784 5784
5719 5722 5724 5727 5729 5732 5734 5736 5738 5741 5744 5746 5748 5751 5753 5755 5757 5759 5760 5761 5762 5764 5764 5765 5766 5766 5767 5767 5768 5768 5769 5770 5772 5772 5773 5773 5774 5774 5774 5774 5774 5775 5775
5709 5712 5714 5716 5719 5721 5724 5726 5727 5730 5733 5735 5737 5740 5742 5745 5747 5749 5750 5751 5752 5754 5754 5755 5756 5756 5757 5757 5758 5759 5759 5760 5761 5762 5763 5763 5764 5764 5764 5764 5765 5765 5765
5698 5701 5704 5706 5708 5710 5713 5715 5717 5719 5721 5724 5726 5728 5731 5733 5735 5738 5740 5741 5742 5743 5744 5745 5746 5746 5747 5747 5748 5748 5749 5750 5751 5752 5753 5753 5753 5753 5754 5754 5755 5755 5755
5687 5690 5693 5695 5697 5700 5702 5704 5706 5707 5709 5712 5714 5717 5719 5722 5724 5726 5729 5731 5732 5733 5734 5734 5735 5736 5736 5737 5737 5738 5739 5740 5741 5742 5742 5743 5743 5743 5743 5744 5744 5745 5745
5676 5679 5681 5684 5686 5688 5690 5692 5694 5696 5698 5700 5703 5705 5707 5710 5712 5714 5717 5719 5721 5723 5723 5723 5724 5725 5725 5726 5727 5728 5728 5729 5730 5731 5731 5732 5732 5733 5733 5733 5734 5734 5734
5665 5667 5669 5672 5674 5676 5678 5680 5682 5684 5686 5688 5690 5692 5695 5698 5700 5702 5704 5707 5709 5711 5712 5712 5713 5713 5714 5715 5716 5717 5717 5718 5719 5719 5720 5721 5721 5722 5722 5722 5722 5722 5723
5653 5654 5656 5659 5661 5663 5665 5667 5669 5672 5674 5676 5678 5680 5682 5685 5687 5689 5691 5694 5696 5698 5700 5701 5702 5702 5703 5703 5704 5705 5706 5707 5707 5708 5708 5709 5710 5710 5710 5710 5711 5711 5711
5640 5641 5643 5645 5648 5650 5652 5654 5656 5658 5660 5663 5664 5666 5669 5671 5673 5676 5678 5680 5682 5685 5687 5689 5690 5690 5691 5692 5692 5693 5694 5694 5695 5695 5696 5697 5697 5698 5698 5698 5698 5698 5698
5626 5628 5630 5632 5634 5636 5638 5641 5643 5644 5647 5649 5651 5652 5655 5657 5659 5662 5664 5667 5669 5671 5673 5676 5676 5677 5678 5679 5679 5680 5681 5681 5682 5683 5683 5684 5684 5685 5685 5685 5685 5685 5685
5613 5615 5616 5618 5620 5622 5624 5626 5628 5630 5633 5635 5637 5638 5640 5642 5645 5648 5650 5652 5655 5657 5659 5662 5663 5664 5664 5666 5667 5667 5668 5668 5669 5669 5670 5670 5671 5671 5671 5671 5671 5671 5671
5599 5601 5602 5604 5606 5608 5610 5612 5613 5615 5618 5620 5622 5624 5626 5628 5630 5633 5635 5638 5640 5642 5645 5647 5649 5650 5651 5651 5652 5653 5654 5655 5655 5656 5656 5656 5656 5657 5657 5657 5657 5657 5657
5585 5587 5588 5590 5591 5593 5595 5597 5598 5600 5602 5604 5606 5608 5610 5612 5615 5617 5620 5623 5625 5627 5630 5632 5634 5635 5636 5637 5637 5638 5639 5640 5641 5641 5642 5642 5642 5642 5642 5642 5643 5642 5642
5571 5572 5574 5575 5576 5577 5579 5581 5582 5584 5586 5589 5591 5593 5595 5597 5599 5601 5604 5607 5609 5612 5614 5616 5618 5620 5621 5621 5623 5623 5624 5625 5626 5626 5627 5627 5628 5628 5628 5627 5627 5627 5627
5556 5557 5558 5559 5560 5562 5563 5564 5566 5569 5571 5573 5575 5577 5579 5580 5582 5585 5588 5591 5593 5596 5598 5600 5602 5604 5605 5606 5607 5608 5609 5610 5612 5613 5612 5613 5612 5613 5613 5613 5612 5612 5612
5540 5541 5542 5543 5545 5546 5546 5548 5550 5552 5555 5557 5559 5561 5563 5565 5566 5569 5571 5574 5577 5579 5582 5584 5586 5588 5590 5591 5592 5593 5593 5594 5596 5596 5596 5598 5598 5598 5598 5597 5597 5597 5596
5525 5525 5526 5527 5528 5529 5530 5532 5533 5536 5538 5541 5543 5545 5547 5549 5551 5553 5556 5559 5561 5564 5566 5568 5570 5572 5573 5574 5575 5576 5577 5578 5580 5580 5580 5583 5583 5583 5582 5582 5581 5581 5580
5509 5510 5510 5512 5513 5514 5514 5516 5517 5519 5522 5524 5527 5529 5531 5534 5536 5538 5541 5544 5546 5548 5549 5552 5553 5555 5556 5558 5559 5560 5561 5562 5564 5565 5564 5566 5567 5567 5567 5567 5565 5565 5564
5492 5493 5495 5496 5497 5498 5499 5500 5501 5504 5506 5509 5511 5513 5515 5517 5519 5521 5525 5528 5531 5532 5534 5536 5538 5539 5541 5542 5543 5544 5545 5546 5547 5549 5549 5549 5550 5550 5551 5552 5550 5548 5547